GFSSE_700_temp_189.txt.gz
Temp
13 13 12 12 12 11 11 10 10 10 9 9 8 8 8 8 7 8 8 8 8 8 8 8 8 8 9 9 9 8 8 8 8 8 8 7 7 7 7 7 7 7 7
13 13 12 12 12 11 10 10 10 10 10 9 9 8 8 7 7 7 7 7 8 8 8 8 8 8 8 8 8 8 8 8 8 8 8 8 7 7 7 7 7 7 7
13 12 12 12 11 11 10 10 10 10 10 9 9 9 8 7 7 7 7 7 7 7 8 8 8 8 8 8 8 8 8 8 8 8 7 7 8 7 7 7 7 7 7
13 13 12 11 11 10 10 10 10 10 10 9 9 9 8 8 7 7 7 7 7 7 7 7 7 8 8 8 8 8 8 8 8 7 7 7 6 7 7 7 7 7 7
13 12 12 11 11 10 10 10 10 10 10 9 9 9 8 8 8 7 7 7 7 7 7 7 7 7 7 8 8 8 8 8 8 7 7 7 6 7 7 7 7 7 7
12 12 11 11 10 10 10 10 10 10 9 9 9 9 8 8 8 8 7 6 7 6 6 6 6 7 7 7 7 7 7 8 8 7 7 8 8 8 8 8 7 7 7
12 12 11 10 10 10 10 10 9 9 9 9 9 8 8 8 8 8 8 7 7 7 7 6 6 6 6 6 6 7 7 7 7 7 7 7 8 7 7 7 7 7 7
12 11 10 10 10 10 10 10 9 9 9 9 8 8 8 8 8 8 7 7 7 7 7 7 7 6 6 6 6 6 6 6 7 7 7 7 7 7 7 7 7 7 7
12 11 10 10 9 9 10 9 9 9 9 9 8 8 8 8 8 7 7 7 7 7 7 7 7 7 6 6 6 6 6 6 6 6 6 7 6 7 7 7 7 7 7
11 11 11 10 9 9 9 9 9 9 9 8 8 8 8 8 7 7 7 7 7 7 7 7 7 7 6 6 6 6 6 6 6 6 6 7 6 6 6 6 7 7 7
11 11 11 10 10 9 9 9 9 9 9 8 8 8 7 7 7 7 7 6 6 6 6 6 6 6 6 6 6 6 6 6 6 6 8 7 7 7 7 7 7 7 7
11 11 11 11 10 9 9 9 9 9 8 8 8 7 7 7 7 6 6 6 6 6 6 6 6 6 6 6 6 6 6 6 6 6 7 7 7 7 7 7 7 7 7
10 10 10 10 10 9 9 9 9 8 8 8 8 7 7 6 6 6 6 6 6 6 6 6 6 6 6 6 6 6 6 6 6 7 6 7 7 7 7 7 7 7 7
10 10 10 10 10 9 9 9 9 8 8 8 7 7 7 6 6 6 6 6 6 5 6 6 5 5 5 5 5 5 6 6 6 7 6 6 7 7 7 7 7 7 7
10 10 10 10 9 9 9 9 8 8 8 8 7 7 6 6 6 5 5 5 5 5 5 5 5 5 5 5 5 5 5 5 5 6 6 6 6 6 7 7 7 7 7
9 9 10 9 9 9 8 9 8 8 8 7 7 7 6 6 5 5 5 5 5 5 5 5 5 5 5 5 5 5 5 5 5 5 6 5 5 5 6 6 6 6 6
9 9 9 9 9 8 8 8 8 8 7 7 7 6 6 6 5 5 5 5 5 5 4 5 5 5 5 5 5 5 5 4 4 4 4 5 5 5 5 5 5 5 6
8 8 9 9 9 8 8 8 8 7 7 7 6 6 6 5 5 5 5 4 4 4 4 4 4 4 4 4 5 5 5 5 4 4 4 4 4 5 5 4 4 5 5
7 8 8 8 8 8 7 7 7 7 7 6 6 6 5 5 5 4 4 4 4 4 4 4 4 4 4 4 4 4 4 4 4 4 4 4 4 4 4 4 4 4 4
7 8 8 8 8 8 7 6 7 7 6 6 6 6 5 5 4 4 4 4 4 3 3 3 3 3 3 3 3 3 3 3 3 3 3 3 3 3 3 3 4 4 3
8 8 8 8 8 7 7 6 7 6 6 6 5 5 5 5 4 3 3 3 3 3 3 3 3 3 3 2 2 2 2 2 2 2 3 3 3 3 3 3 3 3 3
7 7 8 8 8 7 7 6 6 6 5 5 5 5 5 4 4 3 3 3 3 3 3 2 2 2 2 2 2 1 2 2 2 2 2 2 2 2 2 2 2 2 2
7 7 7 7 7 7 7 6 6 5 5 5 5 5 4 4 4 3 3 3 3 3 2 2 2 1 2 2 1 1 1 -1 1 2 1 1 1 1 1 2 2 2 2
7 7 7 7 7 7 6 6 6 6 5 4 4 4 4 4 3 3 3 3 3 2 2 1 1 1 1 1 1 1 1 0 -0 -0 1 1 1 1 1 1 1 1 1
6 6 6 6 6 7 6 5 5 5 4 4 3 4 3 3 3 3 3 2 2 1 1 1 0 0 0 0 1 1 0 0 0 -0 -1 0 0 0 0 1 1 1 1
5 6 6 6 6 5 4 4 4 4 4 3 3 3 3 3 2 2 2 2 1 1 0 -0 -0 -0 -0 -0 0 0 0 0 0 -1 -1 -1 -1 -0 -1 -1 -1 -1 -1

GFSSE_700_temp_192.txt.gz
Temp
14 13 13 13 12 12 12 11 11 11 10 10 10 9 9 9 8 8 8 8 8 8 8 8 8 8 8 8 8 7 7 7 8 8 8 7 7 7 7 7 7 6 7
14 13 13 12 12 12 11 11 11 11 10 10 10 9 9 8 8 8 8 8 8 8 8 8 8 8 8 8 8 7 7 7 7 7 8 8 7 7 6 6 6 6 7
14 13 12 12 12 11 11 11 10 10 10 10 10 10 9 9 8 8 8 7 7 7 7 8 8 8 8 8 8 8 8 7 7 7 7 8 8 8 7 6 6 6 7
14 13 13 12 12 11 11 10 10 10 10 10 10 9 9 9 8 8 7 7 7 7 7 7 7 7 7 8 8 8 7 7 7 7 7 8 8 8 7 7 7 7 7
13 13 12 12 11 11 10 10 10 10 10 10 10 9 9 9 8 8 7 7 7 7 7 7 7 7 7 7 7 7 7 7 7 7 7 5 8 7 7 7 7 7 7
12 12 12 12 11 11 10 10 10 10 10 9 9 9 9 9 9 8 8 7 7 7 7 6 6 6 6 6 6 7 7 7 7 7 6 7 7 7 7 7 7 7 7
12 12 12 11 11 10 10 10 10 10 9 9 9 9 9 9 8 8 8 8 8 7 7 7 6 6 6 6 6 6 6 6 6 6 6 8 7 7 7 7 7 7 7
12 12 12 11 11 10 9 10 10 9 9 9 9 8 8 8 8 8 8 8 8 7 7 7 7 7 6 6 6 6 6 6 6 6 7 7 7 7 7 7 7 7 7
11 12 12 11 10 10 10 10 9 9 9 9 8 8 8 8 8 8 8 8 8 8 7 7 7 7 7 6 6 6 5 5 5 5 6 7 6 6 6 6 6 6 7
11 12 12 11 10 10 9 9 9 9 9 8 8 8 8 8 8 8 7 7 7 7 7 7 7 7 7 7 6 6 5 5 4 6 6 6 6 6 6 6 6 6 6
11 12 12 11 10 10 9 9 9 9 8 8 8 8 8 8 7 7 7 7 7 7 7 7 7 7 7 7 6 6 6 6 5 6 7 6 6 7 7 6 6 7 6
11 11 11 11 11 10 9 9 9 9 8 8 8 8 8 7 7 7 7 6 6 6 6 7 7 7 6 6 6 6 6 5 7 7 6 6 7 7 7 7 7 7 6
11 11 11 11 11 10 10 9 9 9 8 8 8 8 8 7 7 7 7 6 6 6 6 6 6 6 6 6 6 6 6 6 7 6 6 6 7 7 7 7 7 7 7
10 10 10 10 10 10 10 9 9 9 8 8 8 8 7 7 7 7 6 6 6 6 6 6 6 6 6 6 6 6 6 5 7 6 6 6 6 7 7 7 7 7 7
10 10 10 10 10 10 10 9 9 9 9 8 8 8 7 7 7 6 6 6 6 5 5 5 6 5 5 5 5 5 5 5 6 6 5 5 6 6 6 6 6 6 6
10 10 10 10 10 9 9 9 8 9 8 8 8 8 7 7 7 6 6 6 5 5 5 5 5 5 5 5 5 5 5 5 5 6 5 5 5 5 5 5 5 6 6
9 9 10 10 9 9 9 9 8 8 8 8 8 7 7 7 7 6 6 5 5 5 5 5 5 5 5 5 5 5 5 4 4 4 6 5 5 5 5 5 5 5 5
8 8 9 10 9 9 9 9 8 8 7 7 7 7 7 7 6 6 6 5 5 5 5 5 5 4 4 4 5 4 5 4 4 4 3 4 5 5 4 4 4 4 4
7 7 8 9 9 9 9 9 8 8 7 7 7 7 7 7 6 6 6 5 5 5 4 4 4 4 4 4 4 4 4 4 4 4 4 4 3 4 4 4 4 4 4
7 7 6 8 8 8 8 8 8 8 7 7 7 7 6 6 6 6 5 5 5 4 4 4 4 4 4 4 4 4 4 4 4 4 4 3 3 3 3 4 4 3 4
7 7 6 8 9 8 8 8 8 8 7 7 7 7 6 6 6 5 5 4 4 4 4 3 3 3 3 3 3 3 3 3 3 3 3 3 3 3 3 3 3 4 4
7 6 6 7 8 8 7 7 7 7 6 6 6 6 5 5 5 5 5 4 4 4 3 3 3 3 2 2 2 2 3 2 2 2 3 2 2 2 2 2 2 2 3
7 7 7 7 7 7 7 6 6 5 5 5 6 5 5 5 5 4 4 4 4 3 3 3 2 2 2 2 2 2 1 2 2 2 2 2 2 2 2 2 1 2 2
7 6 7 7 7 7 6 6 6 5 5 5 5 5 4 4 4 4 4 4 3 3 3 3 2 2 2 1 1 1 1 0 1 1 2 2 1 1 1 1 1 1 1
4 4 5 4 5 7 7 6 5 4 4 4 4 4 4 4 4 4 3 3 3 3 3 2 1 1 1 0 0 0 0 -0 -0 -1 -1 0 0 0 0 1 0 0 0
3 4 4 3 4 3 5 5 4 3 3 4 4 4 3 3 3 3 3 3 3 3 2 2 1 0 0 0 -0 -0 -0 -0 -1 -1 -1 -1 -1 -0 -1 -0 0 0 -0

GFSSE_700_temp_195.txt.gz
Temp
14 14 14 13 13 12 12 11 11 11 11 11 11 10 10 9 9 8 8 8 8 8 8 8 8 8 8 8 7 7 7 7 7 7 7 7 7 7 7 7 6 6 7
14 13 13 13 13 12 12 11 11 11 11 11 11 10 10 10 9 9 8 8 8 8 8 8 8 8 8 8 7 7 7 7 7 7 8 8 7 7 7 7 6 6 7
14 13 12 12 12 12 11 11 11 11 11 10 11 10 10 9 9 9 9 8 8 8 8 8 8 8 8 8 8 7 7 7 7 8 8 7 7 7 7 7 6 7 7
14 13 12 12 12 12 11 11 11 11 10 10 10 10 10 9 9 9 9 9 8 8 7 7 7 7 7 7 7 7 7 7 7 7 8 8 7 7 7 7 7 7 7
13 13 13 12 12 11 11 11 10 10 10 10 10 10 10 9 9 9 9 8 8 8 7 7 7 7 7 7 7 7 7 7 6 7 7 7 7 7 7 7 7 7 7
12 12 12 12 12 11 11 10 10 10 10 10 10 9 9 9 9 9 8 8 8 8 8 7 7 7 7 7 7 6 7 6 6 6 7 7 7 6 7 7 7 7 7
12 12 12 12 12 11 11 10 10 10 10 9 9 9 9 9 9 9 8 8 8 8 8 8 8 7 7 7 6 6 6 6 6 6 6 6 6 6 7 7 7 7 7
12 12 12 12 11 11 10 10 10 10 9 9 9 9 9 9 9 8 8 8 8 8 8 8 8 8 7 7 7 6 5 5 6 6 6 6 6 6 6 6 6 6 6
11 11 12 11 11 10 10 10 10 9 9 9 9 9 9 8 8 8 8 8 8 8 8 8 8 8 8 7 7 6 5 5 6 5 6 6 6 6 6 6 6 6 6
11 11 11 11 11 11 10 10 9 9 9 9 9 9 9 8 8 8 8 8 8 7 7 7 8 8 7 7 7 6 6 7 6 6 6 6 6 6 6 6 6 6 6
11 11 12 12 11 11 10 10 9 9 9 9 9 9 8 8 8 8 8 8 7 7 7 7 7 7 7 7 7 7 7 7 6 6 6 6 6 6 6 6 6 6 6
11 11 11 11 11 11 11 10 10 9 9 9 8 8 8 8 8 8 8 7 7 7 7 7 7 6 6 6 6 6 7 7 7 6 7 6 7 7 7 7 6 6 6
11 11 11 11 11 11 10 10 9 9 9 9 8 8 8 8 8 7 7 7 7 7 7 7 6 6 7 6 6 6 7 7 6 6 6 7 7 7 6 6 6 7 7
10 11 11 11 11 11 10 10 9 9 9 9 8 8 8 8 7 7 7 7 7 6 6 6 6 6 6 6 6 6 6 7 6 6 6 6 6 7 6 6 6 6 6
10 10 10 10 11 10 10 10 9 9 9 8 8 8 8 8 7 7 7 7 7 6 6 6 6 6 6 6 6 6 6 6 6 6 6 6 6 6 6 6 6 6 6
10 10 10 10 10 10 10 10 10 9 8 8 8 8 8 7 7 7 7 7 6 6 6 6 6 6 5 5 6 5 5 6 6 6 5 5 5 5 5 5 5 5 6
10 9 9 10 10 10 10 10 9 9 9 8 8 8 8 7 7 7 6 7 6 6 6 5 5 5 5 5 5 5 5 5 5 5 5 5 5 5 5 5 5 5 5
8 8 9 10 10 9 9 9 9 9 9 8 8 8 7 7 7 7 6 6 6 6 5 5 5 5 5 5 5 5 4 4 5 5 5 5 5 5 5 5 5 4 4
8 8 8 8 9 9 9 9 9 9 9 8 8 7 7 7 7 6 6 6 6 6 5 5 5 5 5 4 4 4 4 4 4 4 5 5 5 4 4 4 4 4 4
8 8 8 8 9 9 8 8 8 8 8 8 8 7 6 6 6 6 6 5 5 5 5 5 4 4 4 4 4 4 4 4 4 4 3 3 3 4 4 4 4 4 4
8 8 8 8 7 8 9 8 8 7 8 8 7 6 6 6 6 6 6 5 5 5 5 4 4 4 4 4 3 3 3 3 3 3 3 3 3 3 3 4 4 4 3
8 8 8 7 7 7 7 7 7 7 7 7 6 6 5 5 5 5 5 5 5 5 5 5 4 4 3 3 3 2 2 2 3 3 3 2 3 3 2 2 3 3 3
8 8 8 8 7 7 7 7 6 5 6 6 7 6 5 5 5 5 5 5 5 4 4 5 5 4 3 3 2 2 2 2 2 2 2 2 2 2 2 2 2 2 2
8 8 8 8 7 7 6 6 6 5 4 5 6 5 5 5 5 4 4 4 4 4 4 4 4 4 3 3 2 2 2 2 2 2 2 2 1 1 1 1 1 1 1
8 8 8 7 6 6 5 4 5 3 3 3 3 3 2 3 3 4 4 4 4 4 4 4 3 3 3 2 2 1 1 1 1 1 1 1 1 -0 -0 0 0 0 1
7 8 7 6 5 5 4 3 3 4 3 4 2 2 2 2 2 3 3 3 3 3 3 3 3 3 2 2 1 1 0 0 0 0 0 -0 0 -0 -0 -0 0 0 0

GFSSE_700_temp_201.txt.gz
Temp
14 13 13 12 12 12 11 11 11 12 11 11 11 11 10 10 9 9 8 8 8 8 8 8 8 8 8 8 8 8 8 8 8 8 8 7 7 7 6 6 6 6 7
13 13 13 12 12 12 11 11 11 11 11 11 11 11 10 10 10 9 9 8 8 8 8 8 8 8 8 8 8 8 8 8 8 8 8 7 7 7 6 6 6 7 7
13 12 13 12 11 11 11 11 11 11 11 11 11 10 10 10 10 9 9 8 8 8 8 8 8 8 8 7 8 8 8 8 8 8 7 7 7 7 7 7 7 7 7
13 12 12 11 11 11 11 11 11 11 11 11 11 10 10 10 10 9 9 9 8 8 8 7 7 7 7 7 7 7 7 7 7 7 7 7 7 7 7 7 7 6 6
13 12 11 10 10 10 10 10 10 11 11 11 10 10 10 10 10 9 9 9 9 8 8 7 7 7 7 7 7 7 7 7 7 7 7 7 7 7 7 7 7 7 6
11 12 11 10 9 10 10 10 10 10 10 10 10 10 10 10 10 9 9 9 9 8 8 8 7 7 7 6 7 7 7 7 7 7 7 7 7 7 7 7 7 7 6
11 11 11 10 10 9 10 10 10 10 10 10 10 10 10 9 9 9 9 9 9 9 8 8 7 7 6 6 7 7 7 6 6 6 7 7 7 7 7 7 6 6 6
11 11 11 11 11 10 10 10 10 10 10 10 10 9 9 9 9 9 9 9 9 9 8 8 8 8 7 7 7 7 7 6 6 6 6 6 6 6 7 6 6 6 6
10 11 11 11 11 11 10 9 9 9 10 10 9 9 9 9 9 9 9 9 9 8 8 8 8 8 8 8 8 7 7 6 6 6 6 6 6 5 6 6 6 6 6
10 10 10 10 10 11 10 10 9 9 9 9 9 9 9 9 9 8 8 8 8 8 8 8 8 8 8 8 8 8 7 6 6 6 6 6 6 5 6 6 6 6 5
10 10 10 10 10 10 10 10 10 9 9 9 9 9 9 8 8 8 8 8 8 8 8 8 7 7 7 8 7 7 7 6 6 6 6 6 6 6 6 6 6 6 6
10 10 10 10 10 10 10 10 10 9 9 9 9 9 9 8 8 8 8 8 8 8 8 8 7 7 7 7 7 7 7 6 6 6 6 6 6 6 6 7 7 7 7
10 10 10 10 10 10 10 10 10 10 9 9 9 9 9 8 8 8 8 8 8 8 8 8 7 7 7 7 7 6 6 6 6 6 6 6 5 5 6 6 6 7 7
10 10 10 10 10 10 10 10 10 10 9 9 9 9 9 8 8 8 8 8 8 7 7 7 7 7 7 7 6 6 6 5 5 5 5 5 5 5 6 6 5 6 5
9 9 9 9 9 10 10 10 10 10 9 9 9 9 8 8 8 8 8 8 8 7 7 7 7 7 7 6 6 6 6 6 5 5 5 5 5 5 6 6 6 5 5
9 9 9 9 9 9 10 10 10 10 9 9 9 9 8 8 8 7 7 7 7 7 7 7 7 7 7 6 6 6 6 6 6 5 5 5 5 5 5 6 6 5 5
9 9 9 9 9 9 9 9 9 9 9 9 9 9 8 7 7 7 7 7 7 7 7 7 7 7 6 6 6 6 6 6 5 5 5 5 5 5 5 5 5 5 4
9 9 9 9 9 9 8 8 8 8 8 8 9 8 8 7 7 7 7 6 6 6 6 6 6 6 6 6 6 6 6 5 5 5 5 5 5 5 4 5 5 5 4
9 9 9 9 9 8 8 8 8 8 8 8 8 8 8 7 7 7 6 6 6 6 6 6 6 6 6 5 5 5 5 5 5 5 5 5 4 4 4 4 4 4 4
9 9 9 9 9 8 8 8 8 8 7 7 7 7 7 7 6 6 6 6 5 5 5 5 5 5 5 5 4 5 5 5 5 5 5 5 4 4 4 4 4 3 4
9 9 9 9 9 8 8 8 8 8 8 7 7 6 6 6 6 6 6 5 5 4 4 4 4 4 4 4 4 4 4 4 4 4 4 4 4 4 4 4 3 3 3
8 8 8 8 8 8 8 8 8 8 8 7 7 6 6 5 5 5 5 5 5 5 4 4 3 3 3 3 3 3 3 4 4 4 4 3 4 4 3 3 3 3 3
8 8 8 8 8 8 8 8 8 8 8 8 7 7 6 6 5 5 4 4 5 4 4 4 4 3 3 3 2 2 3 3 3 3 3 3 3 3 3 3 2 2 2
8 8 8 8 8 8 8 8 8 8 8 8 7 6 6 5 5 4 4 4 4 4 4 3 3 3 3 2 2 2 1 2 2 2 2 2 2 2 2 2 2 2 2
7 7 8 7 7 7 8 8 8 7 6 6 6 5 5 5 4 4 3 3 3 3 3 3 3 3 3 3 2 2 1 1 1 1 1 2 1 1 1 1 1 1 1
5 5 6 6 6 6 7 7 7 6 5 5 5 5 5 4 4 3 2 2 2 2 2 2 2 2 2 1 1 1 0 0 0 0 -0 -0 0 1 0 0 0 0 0

GFSSE_700_temp_204.txt.gz
Temp
13 13 13 12 12 12 12 11 11 11 11 11 11 11 11 10 10 9 9 9 8 8 8 8 8 8 8 8 8 8 8 8 8 8 8 8 7 7 7 6 6 6 7
13 13 13 12 12 11 11 11 11 11 11 11 11 10 10 10 10 10 9 9 8 8 8 8 8 8 8 8 8 8 8 8 8 8 8 8 7 7 7 7 7 7 7
13 13 13 12 12 11 11 11 11 11 11 10 10 10 10 10 10 10 9 9 9 8 8 8 8 7 8 8 8 8 8 8 8 8 7 7 7 7 7 7 7 7 7
13 12 12 12 12 11 11 11 10 10 10 10 10 10 10 10 10 9 9 9 9 8 8 7 7 7 7 8 7 7 7 7 7 7 7 7 7 7 7 7 7 7 7
12 12 11 11 11 11 11 10 10 10 10 10 10 10 10 10 10 9 9 9 9 8 8 8 7 7 7 7 7 7 7 7 7 7 7 7 7 7 7 7 7 7 7
11 11 11 11 11 10 10 10 10 10 10 10 10 10 9 9 9 9 9 9 8 8 8 7 7 7 7 7 7 7 6 6 6 6 6 6 7 7 7 7 7 7 6
11 11 11 10 10 9 9 10 10 10 10 10 9 9 9 9 9 9 9 9 8 8 8 8 7 7 7 7 7 7 6 6 6 6 6 6 6 6 6 7 7 6 6
10 10 10 10 10 9 9 9 9 9 9 9 9 9 9 9 9 9 9 8 8 8 8 8 8 8 8 7 7 7 6 6 6 6 6 5 6 6 6 6 6 6 6
11 10 10 10 10 10 10 9 9 9 9 9 9 9 9 9 9 9 9 8 8 8 8 8 8 8 8 8 7 7 7 6 6 5 5 5 5 5 5 6 6 6 6
10 10 10 10 10 10 10 10 9 9 9 9 9 9 9 9 9 9 9 8 8 8 8 8 8 8 8 8 7 7 7 6 6 6 5 5 5 5 5 6 6 6 6
10 10 9 9 10 10 10 10 9 9 9 9 9 9 9 9 9 8 8 8 8 8 8 8 8 8 7 7 7 7 7 7 6 6 5 5 5 5 5 5 5 6 6
10 10 10 10 9 10 10 10 9 9 9 9 9 9 9 8 8 8 8 8 8 8 8 8 8 8 7 7 7 7 7 7 6 6 6 5 5 5 6 6 6 6 6
9 9 9 10 10 9 9 9 9 9 9 9 9 9 9 8 8 8 8 8 8 8 8 8 7 7 7 7 7 7 7 6 6 6 6 5 5 6 6 6 6 6 6
9 9 9 9 9 9 9 9 9 9 9 9 9 9 8 8 8 8 8 8 8 8 7 7 7 7 7 7 7 7 6 6 6 6 6 6 6 6 6 6 6 6 6
9 9 9 9 9 9 9 9 9 9 9 9 8 8 8 8 8 8 7 7 7 7 7 7 7 7 7 7 7 6 6 6 6 6 6 6 5 6 6 6 6 5 5
9 9 9 9 9 9 9 9 9 9 9 8 8 8 8 8 8 7 7 7 7 7 7 7 7 7 7 7 6 6 6 6 6 6 6 6 5 6 6 6 5 5 5
9 9 9 9 9 9 9 9 9 8 8 8 8 8 8 7 7 7 7 7 7 7 6 6 7 7 6 6 6 6 6 5 5 5 5 5 5 5 5 5 5 5 5
9 9 9 9 9 9 8 8 8 8 8 8 8 8 8 7 7 7 7 7 6 6 6 6 6 6 6 6 6 5 5 5 5 5 5 5 5 5 5 5 5 5 5
9 9 8 8 8 8 8 8 8 8 8 8 7 8 8 7 7 6 7 6 6 6 6 6 6 6 5 5 5 5 5 5 5 5 5 5 4 4 4 4 4 4 4
9 9 9 9 9 8 8 8 8 8 8 8 8 8 7 7 7 6 6 6 6 6 6 6 6 6 5 5 5 4 5 4 4 4 4 4 4 4 4 4 4 4 4
9 9 9 9 9 8 8 8 8 8 8 8 8 7 7 7 7 7 6 6 6 6 6 5 5 5 5 5 5 5 4 4 4 4 4 4 4 3 3 3 3 3 3
9 9 9 9 8 8 8 8 8 8 7 7 7 7 7 7 7 6 6 6 5 5 5 5 5 5 5 5 5 4 4 4 4 3 3 3 3 3 3 3 3 3 2
7 8 8 8 8 8 8 8 8 8 8 7 7 7 7 6 6 6 6 5 5 4 5 5 5 5 5 5 4 4 4 4 3 3 3 2 2 2 3 3 2 2 2
7 7 7 7 7 7 7 7 8 8 7 7 7 6 5 5 5 5 5 5 5 4 4 4 4 4 4 4 4 4 3 3 2 2 2 2 2 2 1 1 2 2 2
6 6 6 6 6 6 7 7 7 7 7 7 7 7 5 4 4 4 4 4 4 4 4 3 3 3 3 3 3 3 3 2 2 2 1 1 0 0 0 1 1 1 1
4 4 4 4 4 4 5 5 5 6 6 6 6 6 5 4 4 4 3 3 3 3 3 3 2 2 2 2 2 2 2 1 1 0 0 -1 -1 -1 -1 -1 -0 -0 -0